Location: Central Falls
(41.8900°N, 71.3929°W)
Time: 12:29:12
(UTC+00:00)

A-11 Canister half - Pass Details

Date: 12 December 2023
Orbit: 1526 x 1682 km, 47.3° (Epoch: 20 February)

Event Time Altitude Azimuth Distance (km) Brightness Sun altitude
Rises 19:25:02 0° 188° (S) 4,857 12.7 14.6°
Reaches altitude 10° 19:28:58 10° 175° (S) 3,894 11.9 14.1°
Maximum altitude 19:36:19 24° 127° (SE) 2,980 10.6 13.2°
Drops below altitude 10° 19:43:43 10° 79° (E) 3,946 10.7 12.3°
Sets 19:47:42 0° 67° (ENE) 4,936 11.1 11.8°
